Terminal Aerodrome Forecast
Issued by NWS Atlanta, GA

Home | Current Version | Previous Version | Text Only | Print | Product List | Glossary On
Versions: 1 2 3 4 5 6 7 8 9 10 11 12 13 14 15 16 17 18 19 20 21 22 23 24 25 26 27 28 29 30 31 32 33 34 35
000
FTUS42 KFFC 261700
TAFATL
TAF
KATL 261721Z 2618/2724 27008G15KT P6SM FEW045
     FM270100 26005KT P6SM FEW120
     FM271400 27010G15KT P6SM SCT040=

USA.gov is the U.S. government's official web portal to all federal, state and local government web resources and services.